Location: Navajo
(48.7922°N, 105.0603°W)
Time: 10:11:28
(UTC+00:00)

ITUPSAT 1 - Pass Details

Date: 09 July 2022
Orbit: 701 x 711 km, 98.6° (Epoch: 13 August)

Event Time Altitude Azimuth Distance (km) Brightness Sun altitude
Rises 03:40:40 0° 14° (NNE) 3,117 ? -5.5°
Reaches altitude 10° 03:42:56 10° 14° (NNE) 2,194 ? -5.7°
Maximum altitude 03:47:46 85° 286° (WNW) 719 ? -6.3°
Drops below altitude 10° 03:52:33 10° 198° (SSW) 2,182 ? -6.9°
Sets 03:54:48 0° 198° (SSW) 3,097 ? -7.1°
